GEFSMA_con_probscp_276.txt.gz
Probability
9 9 9 7 4 2 3 4 3 3 2 1 0 0 0 0 1 2 1 0 0 0 0 0 0 0 0 0 0 0 0 0 0 1 1 1 0 0 0 1 1 1 0
12 11 10 8 5 3 3 4 3 2 3 2 1 1 0 0 1 1 1 0 0 0 0 0 0 0 1 1 1 1 0 0 0 0 0 0 0 0 0 0 0 0 0
14 14 12 9 6 4 4 4 3 2 2 2 2 2 1 1 1 1 1 1 1 0 0 1 1 1 1 2 2 1 1 1 1 0 0 0 0 0 0 0 0 0 0
14 14 12 9 6 5 4 5 5 3 2 2 2 1 2 2 2 2 2 2 2 1 1 1 2 1 1 1 1 1 1 1 1 0 0 0 0 0 0 0 0 0 0
11 11 10 8 6 5 5 6 6 5 4 3 1 1 2 3 3 3 3 4 5 4 2 2 3 2 1 0 0 0 1 1 0 0 0 0 0 0 0 0 0 0 0
10 10 9 8 6 5 6 8 9 8 5 3 1 1 2 2 2 3 3 5 6 6 5 4 3 2 1 0 0 0 0 0 0 0 0 0 0 0 0 0 0 0 0
10 10 11 10 8 8 8 9 9 8 6 4 2 1 2 2 2 2 3 7 9 9 7 7 5 3 2 1 0 0 0 0 0 0 0 0 0 0 0 0 0 0 0
9 11 13 13 11 11 11 11 9 7 6 4 3 2 2 1 1 1 3 7 10 10 8 9 9 7 5 3 2 0 0 0 0 0 0 0 0 0 0 0 0 0 0
10 11 14 14 14 15 14 12 10 8 6 5 3 2 2 1 1 1 2 5 8 8 7 8 10 9 8 6 4 3 2 2 1 0 0 1 1 1 1 0 0 0 0
11 11 13 14 15 16 15 14 13 11 7 5 3 2 1 1 2 2 1 2 4 4 3 4 7 8 7 7 6 6 5 4 3 2 1 1 2 3 2 1 0 0 0
13 12 11 13 15 17 17 17 16 13 10 8 6 4 2 2 2 1 1 1 1 1 1 2 5 6 7 7 7 7 6 4 3 2 2 3 3 3 2 1 0 0 0
14 12 10 12 16 18 18 18 17 15 12 10 9 8 7 5 3 2 1 1 0 0 1 2 4 5 7 8 9 8 6 4 2 1 2 3 4 4 3 1 0 0 0
12 11 11 13 15 17 18 19 19 17 14 11 10 10 11 9 7 5 3 2 1 1 2 3 4 6 7 9 10 8 7 5 1 0 1 2 3 3 2 1 0 0 0
8 10 13 17 17 16 16 18 19 18 15 13 11 10 11 11 9 7 5 4 3 3 3 4 6 8 9 9 8 7 7 5 1 0 0 1 1 2 1 1 0 0 0
7 9 15 19 20 19 16 15 15 15 15 13 12 11 11 10 9 9 8 7 6 5 3 4 7 9 9 7 5 5 6 4 2 1 1 0 0 0 0 0 0 0 0
12 12 13 17 19 19 17 15 14 14 13 12 11 11 10 9 8 7 8 9 9 8 5 5 6 8 8 7 6 6 7 6 4 3 2 1 0 0 0 0 0 0 0
16 16 14 14 16 17 17 16 16 15 12 11 10 10 9 9 7 7 6 7 8 8 7 7 8 10 12 12 11 11 8 7 7 5 3 1 0 0 0 0 0 0 0
21 21 19 17 17 16 15 14 15 15 14 12 11 10 8 7 7 8 8 7 6 7 8 10 12 14 15 15 15 14 10 8 7 5 3 2 1 0 0 0 0 0 0
23 23 22 20 18 16 13 12 13 15 15 13 12 12 10 8 8 11 12 11 9 10 12 13 14 15 14 14 15 14 11 9 8 6 4 3 1 0 0 0 0 0 0
22 22 21 19 17 16 14 13 13 14 14 13 13 13 13 12 12 14 15 15 14 14 15 15 15 14 13 13 14 14 12 11 9 8 7 5 3 1 0 0 0 0 0
23 23 21 18 16 15 13 12 12 13 15 16 16 14 13 13 14 13 12 13 14 15 15 15 15 14 13 13 13 14 13 11 10 11 11 9 5 3 2 1 0 0 0
26 26 24 20 16 12 9 8 10 14 18 20 20 17 13 12 13 11 9 8 9 10 12 14 16 16 15 15 15 15 14 11 10 12 13 11 8 7 5 3 1 0 0
27 27 26 23 18 12 6 4 6 13 19 21 21 19 15 13 13 13 11 8 7 7 7 10 15 18 18 18 16 14 13 11 10 11 12 11 10 10 8 4 1 0 0
25 25 25 25 22 15 8 3 4 11 17 19 19 18 17 15 15 15 14 13 11 9 8 8 11 13 14 14 12 10 11 11 10 11 12 13 11 9 8 6 3 1 0
25 25 25 26 24 18 10 4 4 11 16 17 18 17 16 15 13 13 15 17 16 14 11 9 7 5 5 5 5 6 9 11 11 12 15 16 13 10 8 8 5 2 0
24 25 27 27 25 19 12 5 4 10 15 17 17 16 14 12 10 11 15 18 18 16 13 10 6 2 0 0 1 4 8 11 12 15 17 18 15 10 9 9 6 3 1

GEFSMA_con_probscp_282.txt.gz
Probability
0 0 0 0 0 0 0 0 0 0 0 0 0 0 0 0 0 0 0 0 1 2 2 1 1 1 1 1 1 0 0 0 0 0 0 0 0 0 0 0 0 0 0
0 0 0 0 0 0 0 0 0 0 0 0 0 0 0 0 0 0 0 0 1 2 2 1 1 2 2 2 1 0 0 0 0 0 0 0 0 0 0 0 0 0 0
0 0 0 0 0 0 0 0 0 0 0 0 0 0 0 0 0 0 0 0 0 1 1 0 1 1 1 1 1 1 1 1 0 0 0 0 0 0 1 1 1 0 0
0 0 0 0 0 0 0 0 0 0 0 0 0 0 0 0 0 0 0 0 0 0 0 0 0 0 0 0 0 1 2 1 0 0 0 0 0 0 1 1 1 0 0
0 0 0 0 0 0 0 0 0 0 0 0 0 0 0 0 0 0 0 0 0 0 0 0 0 1 0 0 0 1 1 1 1 0 0 0 0 0 0 0 0 0 0
0 0 0 0 0 0 0 0 0 0 0 0 0 0 0 0 0 0 0 0 0 0 0 0 0 0 0 0 0 0 0 1 1 1 0 0 0 0 0 0 0 0 0
1 1 1 0 0 0 0 0 0 0 0 0 0 0 0 0 0 0 0 0 0 0 0 0 0 0 0 0 0 0 0 1 2 1 0 0 0 0 0 0 0 0 0
2 2 2 0 0 0 0 0 0 0 0 0 0 0 0 0 0 0 0 0 0 0 0 0 0 0 0 0 0 0 0 0 1 1 0 0 0 0 0 0 0 0 0
1 1 1 0 0 0 0 0 0 0 0 0 0 0 0 0 0 0 0 0 0 0 0 0 0 0 0 0 0 0 0 0 0 0 0 0 0 0 0 0 0 0 0
2 1 1 1 1 1 0 0 0 0 0 0 0 0 0 0 0 0 0 0 0 0 0 0 0 0 0 0 0 0 0 0 0 0 0 0 0 0 1 1 0 0 0
5 4 3 2 1 0 0 0 0 0 0 0 0 0 0 0 0 0 0 0 0 0 0 0 0 1 1 1 0 0 0 0 0 0 0 0 1 1 1 1 0 0 1
5 5 4 3 1 0 0 0 0 0 0 0 0 0 0 0 0 0 0 0 0 0 0 0 0 1 1 1 1 1 0 0 0 0 0 0 1 2 2 1 1 1 2
2 2 3 2 1 0 1 1 1 0 0 0 0 0 0 0 0 0 0 0 0 0 0 0 0 0 1 1 2 2 1 1 0 0 0 0 1 2 3 2 2 3 4
0 0 1 1 0 1 3 3 2 1 1 1 0 0 0 0 0 0 0 0 0 0 0 0 0 0 0 1 1 1 2 3 2 1 0 0 1 2 2 2 2 3 3
0 0 0 0 0 2 4 5 4 3 2 2 1 1 0 0 0 0 0 0 0 0 0 0 0 0 0 1 1 0 1 2 2 1 0 0 0 1 1 1 1 1 1
0 0 0 1 1 2 4 4 4 3 3 3 2 2 1 1 0 0 0 0 0 0 0 0 0 0 0 1 0 0 0 1 1 1 0 0 0 0 0 0 0 0 0
1 1 2 3 3 4 3 3 3 3 3 3 2 3 3 2 1 0 0 0 0 0 0 0 0 0 0 0 0 0 1 1 1 1 0 0 0 0 0 0 0 0 0
4 4 5 5 6 5 4 3 3 3 3 3 3 3 3 2 1 0 0 0 0 1 1 2 1 1 0 0 0 0 1 2 2 1 0 0 0 0 0 0 0 0 0
6 6 6 6 6 6 5 4 3 3 3 3 2 2 2 1 0 0 0 0 1 2 3 3 3 2 1 1 1 0 1 1 2 1 1 1 1 0 0 0 0 0 0
6 6 6 6 6 6 6 5 3 3 2 1 1 1 1 0 0 0 0 1 2 3 3 3 3 3 2 2 2 2 2 2 2 2 2 2 1 0 0 0 0 0 0
6 6 6 6 6 6 5 4 3 2 1 0 0 0 0 0 1 0 0 2 3 4 4 4 4 3 3 2 3 4 4 3 3 3 2 1 0 0 0 0 0 0 0
7 7 7 7 6 5 4 3 3 3 1 0 0 0 1 1 2 2 2 2 4 5 5 5 5 4 3 2 3 4 4 3 3 2 1 0 0 0 0 0 0 0 0
8 9 8 8 6 5 3 3 4 4 4 2 2 2 3 3 5 6 5 4 4 4 4 4 4 4 3 2 2 3 3 2 1 1 0 0 0 0 0 0 0 0 0
12 11 10 9 8 6 4 3 3 5 6 5 5 5 6 6 7 8 7 5 4 3 3 2 2 2 3 2 1 1 1 1 1 0 0 0 0 0 0 0 0 0 0
17 15 12 11 10 8 5 3 3 4 5 5 6 7 7 6 5 6 6 6 5 4 3 1 0 1 2 1 0 0 0 0 1 0 0 0 0 0 0 0 0 0 0
20 18 14 12 12 9 6 4 3 4 4 5 5 6 6 5 4 4 5 6 6 5 3 1 0 0 1 0 0 0 0 0 1 0 0 0 0 0 0 0 0 0 0

GEFSMA_con_probscp_288.txt.gz
Probability
0 0 0 0 0 0 0 0 0 0 0 0 0 0 0 0 0 0 0 0 0 0 0 0 0 0 0 0 1 2 2 3 3 3 2 1 0 0 0 0 0 0 0
0 0 0 0 0 0 0 0 0 0 0 0 0 0 0 0 0 0 0 0 0 0 0 0 0 0 0 0 0 1 1 3 3 3 1 0 0 0 0 0 0 0 0
0 0 0 0 0 0 0 0 0 0 0 0 0 1 0 0 0 0 0 0 0 0 0 0 0 0 0 0 0 0 1 2 3 2 1 0 0 0 0 0 0 0 0
1 1 0 0 0 0 0 0 0 0 0 0 0 0 0 0 0 0 0 0 0 0 0 0 0 0 0 0 0 0 0 1 2 1 0 0 0 0 0 0 0 0 0
0 0 0 0 0 0 0 0 0 0 0 0 0 0 0 0 0 0 0 0 0 0 0 0 0 0 0 0 0 0 0 0 0 0 0 0 0 0 0 0 0 0 0
0 0 0 0 0 0 0 0 0 0 0 0 0 0 0 0 0 0 0 0 0 0 0 0 0 0 0 0 0 0 0 0 0 0 0 0 0 0 0 0 0 0 0
0 0 0 0 0 0 0 0 0 0 0 0 0 0 0 0 0 0 0 0 0 0 0 0 0 0 0 0 0 0 0 0 0 0 0 0 0 0 0 0 0 0 0
0 0 0 0 0 0 0 0 0 0 0 0 0 0 0 0 0 0 0 0 0 0 0 0 0 0 0 0 0 0 0 0 0 0 0 0 0 0 0 0 0 0 0
0 0 0 0 0 0 0 0 0 0 0 0 0 0 0 0 0 0 0 0 0 0 0 0 0 0 0 0 0 0 0 0 0 0 0 0 0 0 0 0 0 0 0
0 0 0 0 0 0 0 0 0 0 0 0 0 0 0 0 0 0 0 0 0 1 0 0 0 0 0 0 0 0 0 0 0 0 0 1 1 0 0 1 1 2 2
0 0 0 0 0 0 0 0 0 0 0 0 0 0 0 0 0 0 0 0 0 0 0 0 0 0 0 0 0 0 0 0 0 0 0 1 2 1 1 2 3 3 4
0 0 0 0 0 0 0 0 0 0 0 0 0 0 0 0 0 0 0 0 0 0 0 0 0 0 0 0 0 0 0 0 0 0 0 1 2 2 2 3 3 3 3
0 0 0 0 0 0 0 0 0 0 0 0 0 0 1 1 1 1 0 0 0 0 0 0 0 0 0 0 0 0 0 0 0 0 0 0 1 1 1 2 2 1 1
0 0 0 0 0 0 0 0 0 0 0 0 1 1 2 3 2 1 0 0 0 0 0 0 0 0 0 0 0 0 0 0 0 0 0 0 0 0 0 1 1 1 0
1 1 1 1 1 0 0 0 0 0 0 1 2 3 3 3 3 2 0 0 0 0 0 0 0 0 0 0 0 0 0 0 0 0 0 0 0 0 0 0 0 0 0
3 3 3 3 2 1 1 0 0 1 1 2 3 3 3 3 2 1 1 1 0 0 0 0 0 0 0 0 0 0 0 0 0 0 0 0 0 0 0 0 0 0 0
5 5 6 5 4 3 2 1 1 2 3 3 3 3 3 1 1 1 2 2 1 1 0 0 0 0 0 0 0 0 0 0 0 0 0 0 0 0 0 0 0 0 0
6 7 7 6 5 4 4 3 3 3 4 4 3 3 2 1 0 1 2 2 2 1 1 0 0 1 1 1 0 0 0 0 0 0 0 0 0 0 0 0 0 0 0
7 8 8 7 6 6 5 4 4 4 4 3 3 2 1 0 0 0 1 1 1 1 1 1 1 3 4 3 1 1 1 1 0 0 0 0 0 0 0 0 0 0 0
9 8 7 6 6 6 6 6 5 4 3 3 2 1 0 0 0 0 0 0 0 0 1 2 3 4 5 4 3 3 3 2 1 1 0 0 0 0 0 0 0 0 0
9 8 6 5 4 5 6 6 5 5 3 2 1 0 0 0 0 0 0 0 0 1 2 3 4 4 5 5 4 5 4 3 3 2 1 0 0 0 0 0 0 0 0
10 9 7 5 4 4 4 4 4 4 3 2 1 0 0 0 0 0 0 0 0 1 2 4 5 6 5 5 4 4 4 4 4 3 1 0 0 0 0 0 0 0 0
11 11 9 7 5 4 3 3 3 3 3 3 3 2 2 1 1 1 1 1 1 0 1 4 6 7 6 5 4 3 3 3 4 3 1 0 0 0 0 0 0 0 0
11 11 11 10 7 5 3 3 3 3 4 4 5 5 5 5 3 3 3 3 2 1 1 2 4 6 5 4 3 3 3 3 3 2 0 0 0 0 0 0 0 0 0
10 10 10 11 9 6 4 3 3 4 5 6 6 6 6 5 3 2 3 4 3 2 1 1 2 2 2 1 2 3 3 3 3 1 0 0 1 1 1 0 0 0 1
10 10 10 11 10 8 5 3 3 5 6 6 6 5 4 3 1 1 3 5 4 2 2 2 1 0 0 0 1 3 3 4 4 2 1 1 2 3 2 1 0 1 1

GEFSMA_con_probscp_294.txt.gz
Probability
0 0 0 0 0 1 2 2 2 1 0 0 0 0 0 0 0 0 0 0 0 0 0 0 0 0 1 2 3 3 3 3 3 3 3 3 3 3 3 3 3 3 3
0 0 0 0 0 0 1 1 1 0 0 0 0 0 0 0 0 0 0 0 0 0 0 0 0 0 0 1 2 2 2 2 2 2 2 2 2 3 3 3 3 3 3
0 0 0 0 0 0 1 1 0 1 1 0 0 0 0 0 0 0 0 0 0 0 0 0 0 0 0 0 1 1 1 1 1 0 1 1 1 1 2 3 3 3 2
0 0 0 0 0 0 1 1 1 2 3 1 0 0 0 0 0 0 0 0 0 0 0 0 0 0 0 0 0 0 0 0 0 0 0 0 1 1 1 2 2 1 1
0 0 0 0 0 0 1 2 2 3 3 2 0 0 0 0 0 0 0 0 0 0 0 0 0 0 0 0 0 0 0 0 0 0 0 1 2 1 1 1 1 0 0
0 1 2 1 0 0 0 1 2 2 1 1 0 0 0 0 0 0 0 0 0 0 0 1 1 1 0 0 0 1 2 1 1 0 0 1 1 1 0 0 0 0 0
1 2 3 3 1 0 0 1 1 1 1 0 0 0 0 0 0 0 0 0 0 0 0 2 3 2 1 1 1 2 3 3 2 2 1 1 0 0 1 1 1 1 1
1 1 2 2 1 0 0 0 0 0 0 0 0 0 0 0 0 0 0 0 0 0 0 1 3 3 3 3 2 3 4 4 4 4 3 2 0 0 1 2 2 2 2
2 1 1 1 0 0 0 0 0 1 1 0 0 0 0 0 0 0 0 0 0 0 0 0 1 3 5 5 4 4 5 6 6 6 6 5 3 1 1 1 1 2 3
4 3 1 0 0 0 0 0 0 1 1 0 0 0 0 0 0 0 0 1 1 0 0 0 0 2 5 7 6 6 6 6 6 6 6 7 6 3 1 1 1 1 2
5 3 1 1 1 0 0 1 1 1 1 0 0 0 1 1 1 1 1 2 2 1 0 0 0 1 3 5 5 5 5 4 4 4 5 6 6 4 3 3 2 1 1
4 3 3 3 3 2 2 3 3 2 1 1 1 0 1 2 3 2 2 2 2 1 0 0 1 2 3 4 3 3 3 3 2 3 3 4 4 4 4 4 2 0 0
5 4 4 4 5 5 5 5 5 5 4 3 2 1 2 3 3 3 4 3 2 1 0 0 1 3 4 5 4 1 1 1 1 1 2 2 3 3 4 3 1 0 1
6 6 6 6 6 6 7 7 8 8 7 6 4 4 4 3 3 4 5 5 3 1 0 0 1 2 4 6 5 1 0 0 0 0 1 1 1 2 2 2 1 1 2
10 9 9 8 8 8 8 9 10 12 12 10 8 7 6 4 4 5 6 6 5 3 2 1 1 1 3 5 3 1 0 1 0 0 0 0 0 1 1 1 1 1 2
14 13 11 11 10 10 11 12 12 14 15 14 11 10 8 7 7 7 7 6 6 6 4 3 2 2 4 5 3 2 2 2 1 0 0 0 0 0 0 0 0 1 1
15 14 14 13 12 12 12 13 12 13 14 14 12 11 11 10 10 9 8 6 6 7 6 4 2 3 6 7 6 5 3 3 2 0 0 0 0 0 0 0 0 0 0
14 14 14 15 14 12 11 12 12 12 12 11 9 9 10 12 12 10 8 7 7 7 7 6 4 5 7 8 7 5 4 4 2 0 0 0 0 0 0 0 0 0 0
16 14 13 13 13 11 10 11 12 12 10 8 7 7 10 12 12 10 9 7 7 7 7 7 7 7 8 8 7 5 5 7 4 0 0 0 0 0 0 0 0 0 0
20 18 15 14 14 12 11 12 13 12 10 7 6 7 9 10 10 10 10 8 7 7 7 7 7 9 10 11 10 7 7 8 6 2 2 2 2 1 1 0 0 0 0
23 22 21 20 18 15 12 12 13 13 12 10 8 8 9 9 9 8 7 7 8 8 7 6 7 10 13 14 13 11 10 10 7 5 5 5 4 4 4 2 1 0 0
24 24 25 24 21 16 11 8 9 11 13 13 13 12 10 8 8 6 4 4 5 7 7 6 8 12 16 16 16 14 14 12 9 7 7 7 6 5 6 4 1 0 0
23 25 26 25 23 16 8 4 4 6 10 14 17 16 14 11 10 9 7 5 5 4 5 7 10 14 17 17 17 17 16 14 11 8 6 6 6 6 5 3 1 0 0
26 26 27 27 26 19 8 3 2 5 10 15 19 20 19 16 14 14 14 12 11 8 4 5 9 12 14 15 16 16 17 16 12 9 7 6 5 6 5 2 0 0 0
28 27 26 28 29 23 13 4 4 10 15 17 20 21 20 19 15 14 18 20 19 15 9 7 8 8 9 10 12 15 17 17 13 10 9 8 7 6 6 4 2 1 0
28 26 25 27 29 26 16 5 6 14 19 19 21 20 18 17 14 12 18 22 22 19 16 13 9 6 5 6 7 13 18 18 15 12 12 11 8 6 6 5 3 2 1

GEFSMA_con_probscp_300.txt.gz
Probability
4 4 6 7 7 6 5 4 5 5 3 1 0 1 0 1 4 6 7 7 5 4 3 2 2 1 2 3 3 3 3 3 3 3 3 3 4 5 5 4 3 4 4
6 6 7 7 5 4 4 3 4 4 3 1 0 1 1 1 4 6 6 6 5 4 2 1 1 2 3 3 3 3 3 3 3 3 3 3 4 5 4 3 3 4 5
9 9 9 7 4 3 3 2 3 4 3 2 2 1 2 3 4 5 5 5 5 4 2 1 0 1 3 3 3 3 2 3 3 3 3 3 3 3 3 3 3 3 4
11 12 11 8 6 5 4 2 3 4 5 6 5 3 2 4 5 4 4 4 5 5 4 2 1 1 2 3 3 2 2 1 2 3 3 3 2 1 1 1 2 1 1
12 13 13 11 8 6 4 2 3 4 5 6 6 4 3 4 4 3 3 3 5 6 5 4 4 2 1 3 4 4 3 1 1 2 2 1 1 0 0 0 0 0 0
13 12 12 11 9 6 4 3 3 4 3 3 4 4 4 4 4 4 3 3 4 6 6 7 7 4 2 4 5 5 4 2 0 1 1 0 0 0 0 0 0 0 0
11 10 11 11 9 7 5 4 3 3 2 1 1 3 4 4 4 5 4 4 4 6 8 9 9 8 6 5 4 4 5 4 2 0 0 0 0 0 0 0 0 0 0
11 9 10 10 9 8 7 5 4 4 2 0 0 1 2 3 4 5 6 5 5 6 8 8 10 12 11 8 5 5 7 7 5 3 1 1 1 1 1 0 0 0 0
12 11 9 9 8 7 8 8 7 8 6 3 2 2 2 3 4 5 6 6 6 7 7 7 10 13 14 13 9 6 5 7 7 5 4 4 3 2 2 1 0 0 0
14 12 11 9 8 7 7 8 10 12 10 7 6 5 5 6 7 7 7 6 6 7 7 7 10 13 15 15 11 7 4 4 5 5 5 5 4 3 3 2 1 0 1
15 14 13 11 10 9 8 9 13 16 15 13 11 9 8 9 9 7 7 6 6 6 6 7 8 10 14 15 12 8 5 3 3 3 4 4 4 3 3 3 2 2 2
16 16 14 13 13 11 11 14 18 20 19 16 14 11 10 10 10 7 6 7 7 6 7 7 6 6 9 12 12 9 6 2 1 2 3 3 3 3 3 3 3 3 3
18 17 14 13 14 13 13 15 19 20 19 16 14 13 12 12 11 8 7 7 7 7 7 7 5 4 4 7 9 8 4 1 0 1 1 2 2 3 3 4 4 4 3
20 19 16 15 15 15 15 15 16 17 16 15 14 13 13 13 12 10 7 7 6 6 7 6 5 4 5 6 5 4 2 1 0 0 0 1 1 1 2 3 4 3 3
23 21 20 19 19 19 18 17 17 16 16 15 14 14 14 13 12 10 6 5 4 4 5 6 6 6 7 6 3 2 2 1 0 0 0 0 0 0 1 2 2 2 2
29 26 22 21 21 21 20 19 18 17 16 15 15 15 14 14 12 10 6 4 3 3 4 6 7 6 6 5 3 2 2 1 1 1 0 0 0 0 0 1 1 1 1
33 29 24 22 21 20 20 20 19 17 15 14 15 15 14 13 12 10 7 5 4 4 4 6 7 6 7 8 7 5 2 0 1 1 0 0 0 0 0 0 0 0 0
34 31 27 24 22 22 22 22 20 16 14 14 15 15 14 12 11 9 7 6 5 5 6 6 6 7 9 13 13 10 4 1 1 1 1 0 0 0 0 0 0 0 0
35 34 31 28 27 26 25 24 22 18 16 15 15 14 14 13 13 11 9 8 7 7 7 6 5 6 10 14 17 14 9 6 3 1 2 1 0 0 0 0 0 0 0
37 37 34 30 29 28 26 25 22 19 17 18 17 15 15 16 16 14 11 10 10 9 8 7 6 5 6 11 16 17 14 11 8 5 4 2 1 0 0 0 0 0 0
39 39 36 30 26 24 22 21 20 18 18 19 19 18 17 17 16 12 10 10 10 10 9 8 6 5 5 9 15 16 14 14 13 10 8 5 3 1 1 1 1 0 0
41 40 36 30 25 21 17 14 14 16 17 19 21 21 19 16 14 12 10 8 8 9 9 9 9 8 9 12 15 14 14 15 16 14 11 10 7 5 4 2 1 0 0
42 39 34 30 25 19 11 6 7 12 17 21 23 23 21 18 16 15 14 11 10 9 9 10 12 13 14 15 15 15 16 17 17 14 13 13 11 9 6 3 1 0 0
40 36 31 28 26 18 8 2 3 9 18 22 23 23 23 21 17 17 17 17 15 13 9 8 10 13 13 13 13 14 16 16 16 14 14 16 15 11 8 3 0 0 0
38 34 31 30 29 21 9 1 2 10 18 22 22 22 21 19 14 14 17 18 18 16 11 7 6 8 9 9 9 12 15 14 13 12 15 19 19 14 10 5 2 0 0
37 34 32 32 31 25 12 2 3 11 17 20 22 22 18 15 10 11 16 18 17 17 14 8 4 4 6 7 8 12 14 13 11 12 16 20 21 17 12 8 3 1 0